CW4784 Weather Reports


time (UTC)temp
F
wind
direction
speed
knots
gust
knots
rain 1hr
in
rain 24hr
in
rain mn
in
humidity
%
barometer
mb
20260906213019 91 117 1.7 10.4 0.00 0.00 0.00 25 1018.4
20260906212509 92 134 6.1 10.4 0.00 0.00 0.00 24 1018.4
20260906212010 93 103 5.2 10.4 0.00 0.00 0.00 27 1018.5
20260906211529 93 80 3.5 8.7 0.00 0.00 0.00 26 1018.6
20260906211011 92 98 2.6 10.4 0.00 0.00 0.00 24 1018.7
20260906210512 91 83 3.5 10.4 0.00 0.00 0.00 25 1018.7
20260906210016 92 39 4.3 9.6 0.00 0.00 0.00 26 1018.9
20260906205512 92 111 3.5 11.3 0.00 0.00 0.00 25 1018.9
20260906205010 91 76 6.1 11.3 0.00 0.00 0.00 26 1019.1
20260906204527 91 91 4.3 11.3 0.00 0.00 0.00 27 1019.1
20260906204014 90 70 6.1 11.3 0.00 0.00 0.00 28 1019.2
20260906203512 90 136 4.3 11.3 0.00 0.00 0.00 28 1019.3
20260906203015 89 104 4.3 11.3 0.00 0.00 0.00 29 1019.4
20260906202509 90 65 4.3 11.3 0.00 0.00 0.00 29 1019.4
20260906202014 90 87 6.1 9.6 0.00 0.00 0.00 29 1019.5
20260906201525 90 68 4.3 9.6 0.00 0.00 0.00 28 1019.6
20260906201011 89 96 2.6 8.7 0.00 0.00 0.00 30 1019.6
20260906200515 89 126 3.5 8.7 0.00 0.00 0.00 29 1019.7
20260906200025 89 88 1.7 9.6 0.00 0.00 0.00 30 1019.7
20260906195511 89 115 4.3 9.6 0.00 0.00 0.00 29 1019.9
20260906195004 89 89 1.7 7.8 0.00 0.00 0.00 29 1019.9
20260906194509 89 85 2.6 7.8 0.00 0.00 0.00 29 1020.0
20260906194003 87 78 0.9 7.8 0.00 0.00 0.00 30 1020.1
20260906193504 88 42 1.7 7.8 0.00 0.00 0.00 30 1020.2
20260906193004 87 86 1.7 7.0 0.00 0.00 0.00 30 1020.3
20260906192502 88 105 4.3 7.8 0.00 0.00 0.00 29 1020.4
20260906192004 87 19 3.5 7.8 0.00 0.00 0.00 29 1020.5
20260906191509 88 55 2.6 7.8 0.00 0.00 0.00 32 1020.6
20260906191003 87 109 3.5 10.4 0.00 0.00 0.00 33 1020.6
20260906190503 86 57 2.6 10.4 0.00 0.00 0.00 34 1020.7
20260906190005 86 54 3.5 9.6 0.00 0.00 0.00 35 1020.8
20260906185503 86 42 3.5 7.0 0.00 0.00 0.00 33 1020.9
20260906185004 85 17 2.6 8.7 0.00 0.00 0.00 32 1021.0
20260906184507 85 350 4.3 8.7 0.00 0.00 0.00 32 1021.2
20260906184006 86 55 2.6 10.4 0.00 0.00 0.00 32 1021.3
20260906183505 86 38 4.3 10.4 0.00 0.00 0.00 31 1021.3
20260906183005 87 71 3.5 9.6 0.00 0.00 0.00 31 1021.3
20260906182507 86 59 5.2 9.6 0.00 0.00 0.00 31 1021.5
20260906182004 85 61 1.7 8.7 0.00 0.00 0.00 31 1021.6
20260906181524 85 40 1.7 8.7 0.00 0.00 0.00 31 1021.7
20260906181004 84 15 6.1 8.7 0.00 0.00 0.00 32 1021.8
20260906180504 84 34 2.6 10.4 0.00 0.00 0.00 32 1021.9
20260906180016 86 60 1.7 10.4 0.00 0.00 0.00 32 1021.9
20260906175508 87 43 6.1 10.4 0.00 0.00 0.00 30 1022.0
20260906175003 86 5 3.5 8.7 0.00 0.00 0.00 30 1022.1
20260906174515 86 40 3.5 7.8 0.00 0.00 0.00 30 1022.1
20260906174007 86 18 4.3 7.8 0.00 0.00 0.00 30 1022.2
20260906173506 87 342 3.5 7.8 0.00 0.00 0.00 31 1022.2
20260906173017 86 347 3.5 7.8 0.00 0.00 0.00 32 1022.3
20260906172506 86 88 2.6 9.6 0.00 0.00 0.00 32 1022.4
20260906172006 86 318 4.3 9.6 0.00 0.00 0.00 33 1022.5
20260906171517 85 342 5.2 8.7 0.00 0.00 0.00 32 1022.5
20260906171004 84 82 2.6 11.3 0.00 0.00 0.00 32 1022.6
20260906170508 84 68 3.5 11.3 0.00 0.00 0.00 32 1022.6
20260906170008 84 360 5.2 9.6 0.00 0.00 0.00 33 1022.6
20260906165504 83 355 3.5 8.7 0.00 0.00 0.00 35 1022.7
20260906165007 82 17 2.6 9.6 0.00 0.00 0.00 34 1022.6
20260906164511 82 11 5.2 10.4 0.00 0.00 0.00 32 1022.6
20260906164005 82 342 5.2 10.4 0.00 0.00 0.00 35 1022.6
20260906163510 81 5 6.1 10.4 0.00 0.00 0.00 34 1022.7
20260906163004 81 14 5.2 10.4 0.00 0.00 0.00 34 1022.7
20260906162507 81 34 6.1 9.6 0.00 0.00 0.00 36 1022.7
20260906162007 80 31 7.0 9.6 0.00 0.00 0.00 36 1022.6
20260906161524 80 35 5.2 9.6 0.00 0.00 0.00 36 1022.6
20260906161006 80 17 5.2 8.7 0.00 0.00 0.00 37 1022.6
20260906160506 79 355 3.5 8.7 0.00 0.00 0.00 38 1022.7
20260906160010 79 31 3.5 8.7 0.00 0.00 0.00 38 1022.5
20260906155507 79 342 5.2 8.7 0.00 0.00 0.00 37 1022.5
20260906155004 80 344 5.2 9.6 0.00 0.00 0.00 37 1022.5
20260906154522 80 350 4.3 9.6 0.00 0.00 0.00 38 1022.4
20260906154006 79 334 2.6 8.7 0.00 0.00 0.00 39 1022.4
20260906153509 79 355 3.5 8.7 0.00 0.00 0.00 39 1022.4
20260906153017 78 346 4.3 8.7 0.00 0.00 0.00 40 1022.5
20260906152507 78 345 6.1 8.7 0.00 0.00 0.00 40 1022.5
20260906152012 77 342 6.1 9.6 0.00 0.00 0.00 40 1022.5
20260906151517 77 349 7.0 9.6 0.00 0.00 0.00 40 1022.4
20260906151012 77 15 6.1 9.6 0.00 0.00 0.00 41 1022.5
20260906150509 76 341 5.2 9.6 0.00 0.00 0.00 43 1022.5
20260906150014 76 352 5.2 9.6 0.00 0.00 0.00 43 1022.5
20260906145509 75 355 4.3 7.8 0.00 0.00 0.00 44 1022.5
20260906145010 75 325 4.3 8.7 0.00 0.00 0.00 46 1022.5
20260906144512 74 330 5.2 8.7 0.00 0.00 0.00 46 1022.6
20260906144006 73 316 3.5 6.1 0.00 0.00 0.00 47 1022.6
20260906143511 71 231 1.7 2.6 0.00 0.00 0.00 50 1022.6
20260906143012 71 231 0.0 2.6 0.00 0.00 0.00 49 1022.6
20260906142508 70 167 1.7 3.5 0.00 0.00 0.00 53 1022.6
20260906142008 69 167 0.0 3.5 0.00 0.00 0.00 53 1022.6
20260906141524 69 167 0.0 3.5 0.00 0.00 0.00 55 1022.5
20260906141007 69 105 0.9 2.6 0.00 0.00 0.00 55 1022.5
20260906140507 68 105 0.0 1.7 0.00 0.00 0.00 57 1022.4
20260906140017 67 105 0.0 3.5 0.00 0.00 0.00 60 1022.3
20260906135509 67 105 1.7 3.5 0.00 0.00 0.00 61 1022.2
20260906135011 65 246 0.0 0.0 0.00 0.00 0.00 66 1022.1
20260906134530 64 246 0.0 0.9 0.00 0.00 0.00 66 1021.9
20260906134013 63 246 0.0 2.6 0.00 0.00 0.00 66 1021.9
20260906133514 63 246 0.9 3.5 0.00 0.00 0.00 66 1021.8
20260906133024 62 246 1.7 3.5 0.00 0.00 0.00 67 1021.8
20260906132513 62 246 1.7 3.5 0.00 0.00 0.00 66 1021.8
20260906132015 61 246 0.9 6.1 0.00 0.00 0.00 65 1021.8
20260906131514 59 246 2.6 6.1 0.00 0.00 0.00 66 1021.7
20260906131009 59 240 3.5 5.2 0.00 0.00 0.00 67 1021.7
20260906130511 59 209 0.9 4.3 0.00 0.00 0.00 67 1021.7
20260906130013 58 198 1.7 4.3 0.00 0.00 0.00 69 1021.6
20260906125512 58 24 2.6 4.3 0.00 0.00 0.00 69 1021.6
20260906125013 59 13 1.7 3.5 0.00 0.00 0.00 68 1021.6
20260906124516 59 13 1.7 3.5 0.00 0.00 0.00 68 1021.6
20260906124014 59 13 1.7 4.3 0.00 0.00 0.00 66 1021.5
20260906123510 58 13 1.7 4.3 0.00 0.00 0.00 64 1021.5
20260906123018 59 12 1.7 4.3 0.00 0.00 0.00 63 1021.4
20260906122513 59 12 1.7 2.6 0.00 0.00 0.00 63 1021.3
20260906122016 59 12 0.0 6.1 0.00 0.00 0.00 62 1021.3
20260906121522 60 12 0.9 7.0 0.00 0.00 0.00 62 1021.3
20260906121011 61 12 5.2 7.0 0.00 0.00 0.00 61 1021.2
20260906120512 62 13 2.6 4.3 0.00 0.00 0.00 61 1021.1
20260906120022 60 13 2.6 4.3 0.00 0.00 0.00 62 1021.1
20260906115513 60 13 0.0 4.3 0.00 0.00 0.00 62 1021.2
20260906115011 60 13 0.0 4.3 0.00 0.00 0.00 63 1021.2
20260906114541 61 13 3.5 4.3 0.00 0.00 0.00 64 1021.0
20260906114013 61 13 1.7 5.2 0.00 0.00 0.00 64 1021.0
20260906113513 61 13 2.6 5.2 0.00 0.00 0.00 64 1021.0
20260906113024 63 35 1.7 4.3 0.00 0.00 0.00 60 1021.0
20260906112513 64 15 1.7 4.3 0.00 0.00 0.00 59 1020.9
20260906112018 65 15 2.6 3.5 0.00 0.00 0.00 60 1020.8
20260906111518 65 15 1.7 4.3 0.00 0.00 0.00 60 1020.9
20260906111017 65 15 0.9 4.3 0.00 0.00 0.00 60 1021.0
20260906110512 65 15 2.6 4.3 0.00 0.00 0.00 61 1020.9
20260906110026 65 15 3.5 4.3 0.00 0.00 0.00 62 1020.9
20260906105516 65 15 3.5 4.3 0.00 0.00 0.00 62 1021.0
20260906105004 65 15 2.6 4.3 0.00 0.00 0.00 62 1021.0
20260906104507 65 15 2.6 4.3 0.00 0.00 0.00 62 1021.0
20260906104003 65 15 3.5 4.3 0.00 0.00 0.00 62 1021.1
20260906103506 65 15 2.6 5.2 0.00 0.00 0.00 62 1021.2
20260906103008 65 15 2.6 6.1 0.00 0.00 0.00 62 1021.2
20260906102505 65 15 3.5 6.1 0.00 0.00 0.00 62 1021.1
20260906102002 65 15 3.5 7.0 0.00 0.00 0.00 62 1021.1
20260906101506 65 15 3.5 7.0 0.00 0.00 0.00 62 1021.1
20260906101005 65 15 3.5 6.1 0.00 0.00 0.00 62 1021.1
20260906100508 64 15 2.6 7.0 0.00 0.00 0.00 62 1021.0
20260906100010 64 15 3.5 7.0 0.00 0.00 0.00 62 1021.1
20260906095508 64 15 3.5 7.8 0.00 0.00 0.00 62 1021.1
20260906095004 64 15 4.3 7.8 0.00 0.00 0.00 63 1021.0
20260906094515 64 15 4.3 8.7 0.00 0.00 0.00 63 1021.0
20260906094006 64 15 5.2 8.7 0.00 0.00 0.00 63 1021.0
20260906093508 63 15 6.1 9.6 0.00 0.00 0.00 63 1020.9
20260906093011 63 15 7.0 10.4 0.00 0.00 0.00 64 1020.9
20260906092508 63 15 7.8 10.4 0.00 0.00 0.00 63 1020.8
20260906092008 63 15 7.0 8.7 0.00 0.00 0.00 60 1021.0
20260906091506 64 15 5.2 7.0 0.00 0.00 0.00 58 1021.0
20260906091009 64 15 2.6 7.0 0.00 0.00 0.00 58 1020.9
20260906090504 64 34 4.3 7.0 0.00 0.00 0.00 57 1020.9
20260906090011 64 31 4.3 7.0 0.00 0.00 0.00 57 1020.8
20260906085506 64 32 2.6 5.2 0.00 0.00 0.00 57 1020.7
20260906085003 64 31 3.5 7.0 0.00 0.00 0.00 57 1020.6
20260906084509 64 34 3.5 7.0 0.00 0.00 0.00 57 1020.4
20260906084006 64 32 4.3 7.0 0.00 0.00 0.00 55 1020.4
20260906083507 64 35 1.7 7.0 0.00 0.00 0.00 54 1020.3
20260906083014 64 16 1.7 4.3 0.00 0.00 0.00 54 1020.3
20260906082512 63 16 2.6 4.3 0.00 0.00 0.00 56 1020.2
20260906082007 63 34 0.9 3.5 0.00 0.00 0.00 56 1020.1
20260906081513 64 36 0.9 3.5 0.00 0.00 0.00 55 1020.0
20260906081011 65 30 0.9 3.5 0.00 0.00 0.00 54 1020.0
20260906080508 64 29 1.7 4.3 0.00 0.00 0.00 55 1019.9
20260906080013 63 26 2.6 4.3 0.00 0.00 0.00 57 1019.9
20260906075511 63 28 0.0 1.7 0.00 0.00 0.00 57 1020.0
20260906075007 63 28 0.0 2.6 0.00 0.00 0.00 58 1020.0
20260906074510 63 34 1.7 5.2 0.00 0.00 0.00 58 1019.9
20260906074006 63 57 1.7 5.2 0.00 0.00 0.00 59 1019.8
20260906073504 64 38 1.7 3.5 0.00 0.00 0.00 58 1019.8
20260906073023 65 97 0.0 1.7 0.00 0.00 0.00 55 1019.8
20260906072508 65 111 0.0 1.7 0.00 0.00 0.00 56 1019.8
20260906072012 65 151 0.0 1.7 0.00 0.00 0.00 56 1019.8
20260906071515 65 133 0.0 3.5 0.00 0.00 0.00 56 1019.8
20260906071009 65 155 0.9 5.2 0.00 0.00 0.00 56 1019.8
20260906070518 65 268 0.9 5.2 0.00 0.00 0.00 54 1019.8
20260906070017 65 157 0.9 3.5 0.00 0.00 0.00 54 1019.8
20260906065513 66 164 0.9 5.2 0.00 0.00 0.00 54 1019.9
20260906065014 66 158 1.7 5.2 0.00 0.00 0.00 53 1020.0
20260906064516 66 173 1.7 5.2 0.00 0.00 0.00 53 1020.1
20260906064008 67 171 2.6 5.2 0.00 0.00 0.00 53 1020.0
20260906063509 67 170 3.5 5.2 0.00 0.00 0.00 54 1020.0
20260906063018 67 122 1.7 4.3 0.00 0.00 0.00 54 1020.0
20260906062509 67 121 0.9 4.3 0.00 0.00 0.00 55 1020.0
20260906062011 67 255 0.9 5.2 0.00 0.00 0.00 55 1020.0
20260906061518 68 148 0.0 5.2 0.00 0.00 0.00 55 1019.9
20260906061011 68 209 0.9 3.5 0.00 0.00 0.00 55 1019.8
20260906060511 68 209 0.9 7.8 0.00 0.00 0.00 54 1019.8
20260906060023 68 209 2.6 7.8 0.00 0.00 0.00 54 1019.6
20260906055511 68 207 4.3 7.8 0.00 0.00 0.00 54 1019.7
20260906055010 68 209 5.2 10.4 0.00 0.00 0.00 54 1020.0
20260906054515 68 217 6.1 12.2 0.00 0.00 0.00 55 1020.1
20260906054013 68 190 7.8 15.6 0.00 0.00 0.00 56 1020.2
20260906053508 69 180 10.4 15.6 0.00 0.00 0.00 55 1020.2
20260906053026 69 180 10.4 13.9 0.00 0.00 0.00 55 1020.2
20260906052512 69 184 7.8 11.3 0.00 0.00 0.00 54 1020.2
20260906052011 69 198 7.8 12.2 0.00 0.00 0.00 54 1020.4
20260906051514 69 183 8.7 12.2 0.00 0.00 0.00 54 1020.4
20260906051010 69 201 7.0 10.4 0.00 0.00 0.00 54 1020.4
20260906050515 69 209 6.1 9.6 0.00 0.00 0.00 54 1020.6
20260906050027 69 194 7.0 9.6 0.00 0.00 0.00 53 1020.7
20260906045513 70 195 6.1 9.6 0.00 0.00 0.00 52 1020.7
20260906045010 70 207 5.2 13.0 0.00 0.00 0.00 50 1020.8
20260906044518 71 211 7.0 13.0 0.00 0.00 0.00 49 1020.9
20260906044009 71 203 7.8 13.9 0.00 0.00 0.00 49 1020.8
20260906043513 70 186 8.7 13.9 0.00 0.00 0.00 51 1020.9
20260906043027 70 187 7.8 12.2 0.00 0.00 0.00 49 1021.0
20260906042513 70 196 7.8 12.2 0.00 0.00 0.00 49 1021.0
20260906042014 70 204 7.0 10.4 0.00 0.00 0.00 49 1021.0
20260906041531 69 211 7.0 10.4 0.00 0.00 0.00 49 1020.9
20260906041012 69 214 7.0 9.6 0.00 0.00 0.00 50 1020.8
20260906040514 68 216 6.1 8.7 0.00 0.00 0.00 51 1020.8
20260906040033 68 215 6.1 7.8 0.00 0.00 0.00 51 1020.8
20260906035511 68 217 5.2 7.8 0.00 0.00 0.00 52 1020.8
20260906035007 68 223 2.6 4.3 0.00 0.00 0.00 50 1020.8
20260906034508 68 223 0.9 3.5 0.00 0.00 0.00 49 1020.7
20260906034004 69 223 1.7 3.5 0.00 0.00 0.00 48 1020.8
20260906033502 69 223 1.7 3.5 0.00 0.00 0.00 49 1020.7
20260906033003 69 107 0.9 3.5 0.00 0.00 0.00 49 1020.6
20260906032502 69 107 0.9 4.3 0.00 0.00 0.00 48 1020.7
20260906032004 69 69 0.9 4.3 0.00 0.00 0.00 48 1020.6
20260906031505 69 169 2.6 3.5 0.00 0.00 0.00 48 1020.4
20260906031007 70 229 0.0 3.5 0.00 0.00 0.00 47 1020.2
20260906030504 70 229 0.9 4.3 0.00 0.00 0.00 45 1020.0
20260906030009 71 248 1.7 7.0 0.00 0.00 0.00 45 1019.9
20260906025506 71 232 3.5 7.0 0.00 0.00 0.00 44 1019.8
20260906025004 71 230 3.5 7.0 0.00 0.00 0.00 45 1019.7
20260906024519 71 222 5.2 7.0 0.00 0.00 0.00 45 1019.8
20260906024006 71 220 5.2 7.8 0.00 0.00 0.00 45 1019.8
20260906023505 71 223 5.2 7.8 0.00 0.00 0.00 44 1019.7
20260906023010 71 227 5.2 7.0 0.00 0.00 0.00 44 1019.6
20260906022503 72 217 4.3 7.0 0.00 0.00 0.00 44 1019.6
20260906022003 72 223 3.5 7.0 0.00 0.00 0.00 44 1019.6
20260906021510 72 225 4.3 7.0 0.00 0.00 0.00 44 1019.5
20260906021004 72 234 3.5 6.1 0.00 0.00 0.00 45 1019.4
20260906020504 72 234 1.7 4.3 0.00 0.00 0.00 45 1019.4
20260906020004 72 239 1.7 4.3 0.00 0.00 0.00 45 1019.3
20260906015507 73 215 1.7 3.5 0.00 0.00 0.00 44 1019.3
20260906015004 74 215 0.9 5.2 0.00 0.00 0.00 44 1019.3
20260906014509 74 215 2.6 5.2 0.00 0.00 0.00 43 1019.3
20260906014012 75 225 2.6 5.2 0.00 0.00 0.00 42 1019.3
20260906013506 75 218 3.5 6.1 0.00 0.00 0.00 41 1019.1
20260906013022 76 225 3.5 6.1 0.00 0.00 0.00 40 1019.0
20260906012508 76 225 3.5 5.2 0.00 0.00 0.00 39 1019.0
20260906012006 77 196 3.5 5.2 0.00 0.00 0.00 39 1018.9
20260906011510 77 166 3.5 5.2 0.00 0.00 0.00 39 1018.9
20260906011007 78 166 4.3 7.0 0.00 0.00 0.00 39 1018.9
20260906010505 79 165 4.3 8.7 0.00 0.00 0.00 39 1019.0
20260906010007 80 173 5.2 8.7 0.00 0.00 0.00 38 1019.1
20260906005507 81 175 5.2 7.0 0.00 0.00 0.00 38 1019.1
20260906005008 83 169 4.3 7.8 0.00 0.00 0.00 35 1019.0
20260906004514 83 161 4.3 8.7 0.00 0.00 0.00 34 1019.1
20260906004005 84 159 5.2 8.7 0.00 0.00 0.00 33 1019.1
20260906003507 84 157 4.3 7.0 0.00 0.00 0.00 33 1018.9
20260906003014 85 142 2.6 6.1 0.00 0.00 0.00 33 1018.9
20260906002506 85 161 0.9 4.3 0.00 0.00 0.00 34 1018.9
20260906002008 85 158 1.7 5.2 0.00 0.00 0.00 33 1018.9
20260906001513 85 157 1.7 5.2 0.00 0.00 0.00 30 1018.9
20260906001007 86 152 2.6 5.2 0.00 0.00 0.00 30 1018.9
20260906000508 86 124 2.6 7.0 0.00 0.00 0.00 30 1018.9
20260906000010 86 145 2.6 7.0 0.00 0.00 0.00 30 1018.9
20260905235519 86 138 2.6 5.2 0.00 0.00 0.00 29 1018.8
20260905235006 86 159 2.6 6.1 0.00 0.00 0.00 32 1018.8
20260905234510 86 163 3.5 6.1 0.00 0.00 0.00 32 1018.9
20260905234007 86 113 0.9 4.3 0.00 0.00 0.00 30 1018.9
20260905233507 85 123 2.6 6.1 0.00 0.00 0.00 33 1018.9
20260905233015 84 109 0.0 6.1 0.00 0.00 0.00 32 1018.9
20260905232507 84 123 2.6 7.8 0.00 0.00 0.00 32 1018.9
20260905232006 84 90 3.5 9.6 0.00 0.00 0.00 31 1018.9
20260905231516 85 93 3.5 10.4 0.00 0.00 0.00 30 1019.0
20260905231008 85 106 7.8 11.3 0.00 0.00 0.00 29 1019.0
20260905230508 86 73 6.1 11.3 0.00 0.00 0.00 27 1019.1
20260905230023 85 82 3.5 13.9 0.00 0.00 0.00 29 1019.1
20260905225505 84 80 7.0 16.5 0.00 0.00 0.00 31 1019.1
20260905225010 84 86 12.2 16.5 0.00 0.00 0.00 30 1019.2
20260905224533 83 82 9.6 18.2 0.00 0.00 0.00 31 1019.3
20260905224007 83 121 7.8 18.2 0.00 0.00 0.00 32 1019.4
20260905223506 81 82 9.6 20.9 0.00 0.00 0.00 36 1019.5
20260905223012 80 148 13.9 29.5 0.00 0.00 0.00 38 1019.4
20260905222506 81 150 18.2 29.5 0.00 0.00 0.00 36 1019.3
20260905222009 83 126 20.0 26.9 0.00 0.00 0.00 32 1019.2
20260905221514 84 159 20.0 26.9 0.00 0.00 0.00 32 1019.3
20260905221010 86 215 7.8 14.8 0.00 0.00 0.00 30 1019.2
20260905220511 89 164 4.3 7.8 0.00 0.00 0.00 28 1019.2
20260905220028 88 155 0.9 3.5 0.00 0.00 0.00 28 1019.1
20260905215509 88 58 0.0 0.9 0.00 0.00 0.00 23 1019.1
20260905215009 89 58 0.0 1.7 0.00 0.00 0.00 25 1019.1
20260905214531 89 58 0.0 2.6 0.00 0.00 0.00 24 1019.1
20260905214010 89 58 0.0 2.6 0.00 0.00 0.00 24 1019.2
20260905213509 89 58 0.9 3.5 0.00 0.00 0.00 25 1019.1
20260905213056 89 73 0.0 3.5 0.00 0.00 0.00 26 1019.1